Simultaneous Nadir Overpasses (SNOs) Predictions

Prediction of SNOs between LANDSAT-8 and METOP-B Satellite Orbit:

Table of predicted SNOs for the next 14.0 days since TLE Epoch: 10/6/2018
Index Date (LANDSAT-8) Time (LANDSAT-8) Lat,Lon (LANDSAT-8) SZA (LANDSAT-8 ) Date (METOP-B) Time (METOP-B) Lat,Lon (METOP-B) SZA (METOP-B ) Distance(km) Time Diff (sec)
1 10/07/2018 11:56:54 81.18, 41.63 89.18 10/07/2018 11:56:01 81.17, 41.48 89.13 2.73 53
2 10/07/2018 12:46:20 -81.20,-150.41 90.77 10/07/2018 12:46:40 -81.20,-150.28 90.74 2.26 20
3 10/10/2018 07:31:11 81.17, 107.86 90.23 10/10/2018 07:30:23 81.17, 107.82 90.21 0.73 48
4 10/10/2018 08:20:37 -81.19, -84.16 89.71 10/10/2018 08:21:03 -81.19, -84.32 89.71 2.81 26
5 10/13/2018 03:05:27 81.18, 174.42 91.33 10/13/2018 03:04:44 81.18, 174.52 91.32 1.62 43
6 10/13/2018 03:54:53 -81.20, -17.57 88.61 10/13/2018 03:55:24 -81.19, -17.62 88.61 1.01 31
7 10/15/2018 22:39:42 81.18,-119.04 92.40 10/15/2018 22:39:05 81.18,-119.17 92.36 2.43 37
8 10/15/2018 23:29:09 -81.18, 48.62 87.59 10/15/2018 23:29:45 -81.19, 48.69 87.56 1.35 36
9 10/18/2018 18:13:58 81.19, -52.52 93.45 10/18/2018 18:13:26 81.18, -52.49 93.44 0.73 32




NCC Satellite Simultaneous Nadir Overpasses (SNOs) Prediction Service
